[[{"header":{"parameterUnit":"m.s-1","parameterCategory":1,"la1":30.2991,"la2":30.254,"lo1":-89.0895,"lo2":-89.0444,"dy":0.0017,"dx":0.0017,"nx":28,"ny":28,"refTime":"2025-04-28T21:00:00:Z","depth":0,"parameterNumber":2,"parameterNumberName":"U-component_of_WINDS"},"data":[0,0,0,0,0,0,0,0,0,0,0,0,0,0,0,0,0,0,0,0,0,0,0,0,0,0,0,0,0,0,0,0,0,0,0,0,0,0,0,0,0,0,0,0,0,0,0,0,0,0,0,0,0,0,0,0,0,0,-3.7648,-3.7649,0,-3.7783,-3.7784,-3.7786,-3.7792,-3.779,-3.7789,-3.7787,-3.7919,-3.7923,-3.7928,0,0,0,0,0,0,0,0,0,0,0,0,0,-3.739,-3.7394,-3.7648,-3.7649,-3.7651,-3.7783,-3.7784,-3.7786,-3.7792,-3.779,-3.7788,-3.7786,-3.7917,-3.7923,-3.7929,0,0,0,0,0,0,0,0,0,0,0,0,0,-3.7511,-3.7396,-3.7647,-3.767,-3.7673,-3.7782,-3.7785,-3.7787,-3.7793,-3.779,-3.7788,-3.7786,-3.7915,-3.7922,-3.793,-3.8023,0,0,-3.7952,-3.7955,0,0,0,0,0,0,0,0,-3.7504,-3.752,-3.7665,-3.7669,-3.7673,-3.7768,-3.7742,-3.7866,-3.7793,-3.7747,-3.7787,-3.7784,-3.787,-3.7881,-3.7911,-3.8029,-3.8035,-3.7953,-3.7957,-3.7961,-3.7963,0,0,0,0,0,0,0,-3.7495,-3.7514,-3.7701,-3.7667,-3.7672,-3.7672,-3.7686,-3.7765,-3.782,-3.7751,-3.7752,-3.7768,-3.7872,-3.7904,-3.7914,-3.8036,-3.7953,-3.7959,-3.7964,-3.7967,-3.8238,-3.8241,0,0,0,0,0,0,-3.7483,-3.7507,-3.7697,-3.7705,-3.7581,-3.7678,-3.7695,-3.774,-3.7819,-3.7829,-3.777,-3.7768,-3.7892,-3.7906,-3.7919,-3.8033,-3.7961,-3.7968,-3.7972,-3.8235,-3.8239,-3.8242,0,0,0,0,0,0,-3.7478,-3.75,-3.7691,-3.7607,-3.7631,-3.7685,-3.7736,-3.7744,-3.7776,-3.7834,-3.7843,-3.7793,-3.7891,-3.7909,-3.7998,-3.8038,-3.7971,-3.7978,-3.8232,-3.8236,-3.824,-3.8262,0,0,0,0,0,0,-3.7471,-3.7498,-3.7535,-3.7607,-3.7635,-3.7769,-3.7739,-3.7748,-3.779,-3.7788,-3.7858,-3.7867,-3.7891,-3.7986,-3.8005,-3.8047,-3.7984,-3.8229,-3.8234,-3.8239,-3.8258,-3.8267,-3.8274,0,0,0,0,0,-3.7461,-3.7534,-3.7537,-3.756,-3.7683,-3.7771,-3.7787,-3.7815,-3.7793,-3.783,-3.7867,-3.7865,-3.8031,-3.7996,-3.8016,-3.8061,-3.8226,-3.8232,-3.8238,-3.8255,-3.8265,-3.8274,0,0,0,0,0,0,-3.7462,-3.7544,-3.7548,-3.7647,-3.7703,-3.7772,-3.7819,-3.7825,-3.7885,-3.7881,-3.7911,-3.7926,-3.8015,-3.8047,-3.8006,-3.8156,-3.8126,-3.8137,-3.8131,-3.8141,-3.8149,-3.8138,-3.799,0,0,0,0,0,-3.7475,-3.7542,-3.7609,-3.769,-3.7718,-3.7764,-3.7803,-3.782,-3.7878,-3.79,-3.7944,-3.7998,-3.8063,-3.8104,-3.8167,-3.8264,-3.8279,-3.8305,-3.8313,-3.8319,-3.8327,-3.8381,-3.8393,-3.8262,-3.8262,-3.8262,0,0,-3.7499,-3.7553,-3.7592,-3.7691,-3.7736,-3.7803,-3.7783,-3.7854,-3.7904,-3.791,-3.7998,-3.8032,-3.8094,-3.8188,-3.8231,-3.8218,-3.8368,-3.8327,-3.8332,-3.8336,-3.8388,-3.8401,-3.8412,-3.8266,-3.8265,-3.8265,0,0,-3.7579,-3.7627,-3.7699,-3.7746,-3.7815,-3.7846,-3.7864,-3.7934,-3.7957,-3.8046,-3.8053,-3.8112,-3.8222,-3.8267,-3.8304,-3.8403,-3.8403,-3.8423,-3.8463,-3.8515,-3.8525,-3.8534,-3.8569,-3.8581,-3.8431,-3.8431,-3.8431,0,-3.76,-3.7703,-3.7735,-3.7808,-3.785,-3.7864,-3.7936,-3.7979,-3.8065,-3.8093,-3.8078,-3.8218,-3.8261,-3.8365,-3.839,-3.842,-3.844,-3.8413,-3.8522,-3.8531,-3.854,-3.8573,-3.8586,-3.8433,-3.8433,-3.8433,-3.8433,0,-3.7725,-3.7797,-3.7847,-3.7932,-3.7981,-3.8053,-3.8095,-3.8141,-3.8154,-3.8186,-3.8276,-3.8329,-3.8403,-3.843,-3.8442,-3.8536,-3.8525,-3.8516,-3.8485,-3.8554,-3.8585,-3.8598,-3.8436,-3.8435,-3.8435,-3.8434,0,0,-3.7805,-3.7911,-3.7928,-3.7967,-3.8047,-3.8101,-3.8174,-3.8249,-3.8287,-3.8346,-3.8407,-3.8502,-3.8494,-3.8536,-3.8555,-3.8601,-3.8676,-3.8585,-3.8587,-3.8599,-3.8781,-3.8786,-3.88,-3.8678,-3.868,-3.8682,-3.8775,0,-3.7892,-3.8024,-3.8056,-3.8168,-3.8234,-3.8249,-3.8312,-3.8367,-3.84,-3.8459,-3.8495,-3.8561,-3.8547,-3.8572,-3.8619,-3.8656,-3.8712,-3.8651,-3.8732,-3.8734,-3.8713,-3.8817,-3.8822,-3.8907,-3.8788,-3.879,-3.8791,0,-3.8009,-3.8074,-3.8194,-3.8266,-3.8295,-3.8351,-3.8423,-3.8481,-3.8543,-3.8564,-3.8613,-3.8627,-3.8702,-3.8671,-3.8774,-3.8732,-3.8767,-3.8791,-3.8795,-3.8801,-3.8765,-3.8824,-3.8935,-3.8947,-3.8811,-3.881,-3.8808,0,-3.8054,-3.8171,-3.8258,-3.8291,-3.8378,-3.8417,-3.8455,-3.8516,-3.8559,-3.8622,-3.865,-3.872,-3.8757,-3.881,-3.8843,-3.8817,-3.8943,-3.8914,-3.896,-3.8959,-3.8983,-3.8981,-3.9099,-3.901,-3.901,-3.901,-3.901,0,-3.8146,-3.8217,-3.8279,-3.8332,-3.8413,-3.845,-3.8529,-3.8566,-3.8621,-3.868,-3.8697,-3.8752,-3.8793,-3.8854,-3.888,-3.8961,-3.8978,-3.8995,-3.9001,-3.8992,-3.899,-3.9014,-3.9008,-3.9013,-3.9013,-3.9012,-3.9011,0,-3.8207,-3.8252,-3.8347,-3.8423,-3.8444,-3.85,-3.8564,-3.8615,-3.865,-3.8725,-3.8745,-3.8799,-3.8871,-3.891,-3.9,-3.9017,-3.9107,-3.9111,-3.9087,-3.9088,-3.9131,-3.9126,-3.9267,-3.9287,-3.9187,-3.9188,-3.9189,0,-3.8261,-3.8318,-3.8401,-3.8443,-3.8482,-3.855,-3.8596,-3.8635,-3.8681,-3.8758,-3.88,-3.8874,-3.8935,-3.9049,-3.9095,-3.9164,-3.9167,-3.9213,-3.9177,-3.9168,-3.9166,-3.9161,-3.9166,-3.9217,-3.9218,-3.9219,-3.922,0,-3.8352,-3.8373,-3.8439,-3.8513,-3.8568,-3.8628,-3.8687,-3.872,-3.8769,-3.882,-3.8895,-3.8943,-3.9037,-3.9109,-3.9182,-3.9219,-3.9227,-3.9231,-3.9245,-3.9235,-3.9219,-3.9227,-3.9101,-3.9227,-3.9226,-3.9225,-3.9225,-3.9225,-3.8411,-3.8461,-3.8529,-3.8602,-3.8651,-3.8707,-3.8759,-3.8802,-3.8867,-3.8947,-3.8967,-3.9046,-3.9108,-3.9208,-3.9247,-3.9309,-3.93,-3.932,-3.9325,-3.9328,-3.9329,-3.9212,-3.9322,-3.9322,-3.9322,-3.9322,-3.9322,0,-3.8501,-3.8546,-3.8613,-3.8697,-3.8755,-3.8762,-3.8828,-3.8875,-3.8945,-3.9004,-3.9065,-3.9152,-3.9223,-3.9276,-3.9349,-3.9388,-3.9393,-3.9405,-3.9401,-3.9409,-3.9334,-3.9314,-3.94,-3.94,-3.94,-3.94,-3.94,-3.94,-3.8554,-3.8641,-3.8669,-3.878,-3.8825,-3.8904,-3.8942,-3.8993,-3.904,-3.9137,-3.9198,-3.9233,-3.9289,-3.9367,-3.9432,-3.9446,-3.947,-3.9482,-3.9495,-3.9423,-3.9415,-3.9407,-3.9388,-3.9487,-3.9488,-3.9565,-3.9566,-3.9566]},{"header":{"parameterUnit":"m.s-1","parameterCategory":1,"la1":30.2991,"la2":30.254,"lo1":-89.0895,"lo2":-89.0444,"dy":0.0017,"dx":0.0017,"nx":28,"ny":28,"refTime":"2025-04-28T21:00:00:Z","depth":0,"parameterNumber":3,"parameterNumberName":"V-component_of_WINDS"},"data":[0,0,0,0,0,0,0,0,0,0,0,0,0,0,0,0,0,0,0,0,0,0,0,0,0,0,0,0,0,0,0,0,0,0,0,0,0,0,0,0,0,0,0,0,0,0,0,0,0,0,0,0,0,0,0,0,0,0,2.3509,2.3509,0,2.352,2.352,2.352,2.349,2.3489,2.3488,2.3488,2.3497,2.3498,2.3499,0,0,0,0,0,0,0,0,0,0,0,0,0,2.3461,2.3462,2.3509,2.3509,2.3509,2.352,2.352,2.352,2.349,2.3489,2.3488,2.3487,2.3497,2.3498,2.35,0,0,0,0,0,0,0,0,0,0,0,0,0,2.3478,2.3463,2.3509,2.3496,2.3494,2.352,2.352,2.352,2.3491,2.3489,2.3488,2.3487,2.3496,2.3498,2.35,2.3538,0,0,2.3505,2.3506,0,0,0,0,0,0,0,0,2.3477,2.348,2.3497,2.3497,2.3495,2.3502,2.3507,2.3526,2.3491,2.3492,2.3488,2.3486,2.35,2.3501,2.3506,2.3538,2.3539,2.3505,2.3506,2.3507,2.3507,0,0,0,0,0,0,0,2.3476,2.3479,2.3513,2.3498,2.3496,2.3489,2.349,2.351,2.3504,2.3492,2.349,2.3492,2.3499,2.3505,2.3506,2.3539,2.3505,2.3506,2.3507,2.3508,2.3604,2.3605,0,0,0,0,0,0,2.3477,2.3478,2.3513,2.3513,2.3483,2.3491,2.3492,2.3501,2.3503,2.3502,2.3493,2.349,2.3503,2.3504,2.3507,2.3552,2.3507,2.3508,2.3509,2.3602,2.3604,2.3606,0,0,0,0,0,0,2.3476,2.348,2.3512,2.3495,2.3499,2.3493,2.3504,2.3502,2.3508,2.3504,2.3502,2.35,2.3502,2.3504,2.3531,2.3551,2.3509,2.3511,2.36,2.3603,2.3605,2.3642,0,0,0,0,0,0,2.3474,2.348,2.3494,2.3496,2.35,2.3536,2.3506,2.3504,2.3511,2.3508,2.351,2.3509,2.3501,2.3528,2.3532,2.3553,2.3512,2.3598,2.3601,2.3604,2.3639,2.3645,2.3651,0,0,0,0,0,2.3473,2.3503,2.3495,2.3499,2.3518,2.3538,2.354,2.353,2.3513,2.3527,2.3525,2.3509,2.3549,2.3531,2.3536,2.3557,2.3597,2.3601,2.3604,2.3636,2.3644,2.3651,0,0,0,0,0,0,2.3503,2.3503,2.3494,2.3526,2.3532,2.3533,2.355,2.3538,2.3549,2.3545,2.3532,2.3533,2.3562,2.3562,2.3542,2.3595,2.357,2.3575,2.3593,2.36,2.3606,2.3605,2.3513,0,0,0,0,0,2.3514,2.353,2.3529,2.3558,2.3562,2.3556,2.3564,2.3556,2.3561,2.3563,2.3563,2.3569,2.3582,2.3592,2.3604,2.3639,2.3639,2.3656,2.3662,2.3667,2.3671,2.369,2.3698,2.3617,2.3617,2.3617,0,0,2.3535,2.3538,2.3548,2.3564,2.3568,2.3585,2.3558,2.3577,2.3589,2.3566,2.3591,2.3591,2.3597,2.3628,2.3642,2.3629,2.3694,2.3672,2.3676,2.3676,2.3694,2.3702,2.3709,2.3619,2.3619,2.3619,0,0,2.3583,2.3587,2.3611,2.3616,2.3623,2.3619,2.3625,2.3628,2.3627,2.3653,2.3636,2.3651,2.3675,2.3679,2.3685,2.3738,2.3723,2.3742,2.3773,2.3792,2.3798,2.3803,2.3822,2.3829,2.3746,2.3746,2.3746,0,2.3609,2.3634,2.3625,2.3646,2.3653,2.3635,2.3659,2.3665,2.3675,2.368,2.3666,2.3697,2.3699,2.3732,2.3745,2.375,2.3756,2.3741,2.3798,2.3803,2.3808,2.3826,2.3833,2.3748,2.3748,2.3748,2.3748,0,2.3666,2.3684,2.3703,2.3714,2.3724,2.3747,2.3741,2.3752,2.3744,2.3742,2.3769,2.3771,2.3784,2.3791,2.3783,2.3823,2.3815,2.38,2.3775,2.3818,2.3835,2.3841,2.3751,2.3751,2.375,2.3749,0,0,2.3731,2.3739,2.3746,2.3751,2.3758,2.3772,2.3794,2.3808,2.3818,2.3826,2.3844,2.3866,2.3853,2.3859,2.3852,2.3869,2.391,2.3851,2.3851,2.3862,2.3955,2.3966,2.3974,2.3902,2.3903,2.3904,2.3954,0,2.3778,2.3817,2.381,2.3847,2.3865,2.3848,2.3868,2.3874,2.3874,2.3888,2.3886,2.3902,2.3883,2.3887,2.3903,2.3902,2.3929,2.3898,2.3918,2.3919,2.3916,2.3982,2.3993,2.404,2.396,2.3962,2.3962,0,2.3837,2.385,2.3889,2.3895,2.3902,2.392,2.3932,2.3946,2.3954,2.3952,2.3961,2.395,2.3973,2.3949,2.3979,2.3959,2.3967,2.3968,2.3969,2.397,2.3942,2.3984,2.4055,2.4062,2.3972,2.3971,2.3971,0,2.3881,2.3907,2.3934,2.394,2.3947,2.396,2.3964,2.397,2.3979,2.399,2.3996,2.401,2.4017,2.4028,2.4022,2.4005,2.4053,2.4028,2.4052,2.4052,2.4062,2.4061,2.4135,2.4069,2.4069,2.4068,2.4068,0,2.3934,2.3958,2.3954,2.3971,2.3998,2.3991,2.4018,2.402,2.4026,2.4043,2.403,2.4046,2.4037,2.4052,2.4048,2.4074,2.4077,2.4076,2.4074,2.4077,2.4077,2.4081,2.4077,2.407,2.407,2.4069,2.4069,0,2.3986,2.3984,2.4013,2.4018,2.4021,2.4041,2.4045,2.4061,2.406,2.4082,2.4086,2.4084,2.4102,2.4097,2.4116,2.4113,2.4146,2.414,2.4144,2.4142,2.4166,2.4164,2.4244,2.4254,2.4182,2.4183,2.4183,0,2.4019,2.4038,2.4047,2.4058,2.4063,2.408,2.409,2.4084,2.4095,2.4106,2.412,2.4137,2.415,2.4179,2.4179,2.4193,2.4187,2.4215,2.4189,2.4192,2.4187,2.4186,2.4188,2.4219,2.422,2.4221,2.4221,0,2.4079,2.4078,2.4093,2.4108,2.4121,2.4132,2.4143,2.4152,2.4147,2.416,2.4178,2.4189,2.4209,2.4225,2.4239,2.4242,2.4231,2.423,2.4236,2.4238,2.4239,2.4239,2.4157,2.4228,2.4227,2.4227,2.4226,2.4226,2.4122,2.4139,2.4148,2.4166,2.4173,2.4184,2.4199,2.4201,2.4217,2.4233,2.4229,2.425,2.4258,2.4275,2.4281,2.4297,2.4286,2.4295,2.4298,2.43,2.4303,2.4238,2.4299,2.4299,2.4299,2.4299,2.4299,0,2.4181,2.4187,2.4203,2.4219,2.4233,2.4223,2.4235,2.4247,2.4266,2.4275,2.4289,2.431,2.4327,2.4329,2.4345,2.4357,2.4353,2.4362,2.436,2.4361,2.4311,2.4304,2.4365,2.4365,2.4365,2.4365,2.4365,2.4365,2.4213,2.4241,2.4241,2.4273,2.4278,2.43,2.4307,2.4317,2.4324,2.4349,2.4363,2.4365,2.4372,2.4388,2.4403,2.4403,2.4409,2.442,2.4419,2.4371,2.4365,2.4358,2.4352,2.4422,2.4422,2.4467,2.4468,2.4468]}]]